TimeCST,TemperatureF,Dew PointF,Humidity,Sea Level PressureIn,VisibilityMPH,Wind Direction,Wind SpeedMPH,Gust SpeedMPH,PrecipitationIn,Events,Conditions,WindDirDegrees,DateUTC
12:35 AM,46.4,24.8,43,29.94,10.0,SSE,8.1,-,N/A,,Clear,160,2013-02-04 06:35:00
12:55 AM,46.4,24.8,43,29.94,10.0,South,5.8,-,N/A,,Clear,180,2013-02-04 06:55:00
1:15 AM,44.6,24.8,46,29.94,10.0,South,5.8,-,N/A,,Clear,180,2013-02-04 07:15:00
1:36 AM,46.4,24.8,43,29.93,10.0,South,4.6,-,N/A,,Scattered Clouds,180,2013-02-04 07:36:00
2:15 AM,46.4,24.8,43,29.92,10.0,South,6.9,-,N/A,,Mostly Cloudy,190,2013-02-04 08:15:00
2:35 AM,46.4,24.8,43,29.91,10.0,South,5.8,-,N/A,,Partly Cloudy,180,2013-02-04 08:35:00
2:55 AM,46.4,24.8,43,29.91,10.0,South,5.8,-,N/A,,Scattered Clouds,180,2013-02-04 08:55:00
3:15 AM,46.4,26.6,46,29.91,10.0,South,5.8,-,N/A,,Scattered Clouds,170,2013-02-04 09:15:00
3:56 AM,46.4,26.6,46,29.89,10.0,South,8.1,-,N/A,,Scattered Clouds,180,2013-02-04 09:56:00
4:55 AM,46.4,30.2,53,29.87,10.0,SE,8.1,-,N/A,,Overcast,140,2013-02-04 10:55:00
5:35 AM,44.6,33.8,66,29.86,10.0,South,10.4,-,N/A,Thunderstorm,Thunderstorm,170,2013-02-04 11:35:00
6:15 AM,-9999,-9999,N/A,-9999,10.0,North,-9999.0,-,N/A,,Overcast,0,2013-02-04 12:15:00
6:56 AM,46.4,35.6,66,29.87,10.0,SSW,18.4,24.2,N/A,,Overcast,200,2013-02-04 12:56:00
7:15 AM,46.4,37.4,71,29.87,10.0,South,16.1,-,N/A,,Overcast,180,2013-02-04 13:15:00
7:35 AM,46.4,35.6,66,29.87,9.0,South,17.3,21.9,N/A,,Overcast,190,2013-02-04 13:35:00
7:56 AM,46.4,35.6,66,29.87,10.0,South,12.7,20.7,N/A,,Mostly Cloudy,180,2013-02-04 13:56:00
8:15 AM,46.4,37.4,71,29.87,10.0,South,15.0,19.6,N/A,,Overcast,190,2013-02-04 14:15:00
8:35 AM,46.4,37.4,71,29.87,10.0,South,13.8,20.7,N/A,,Overcast,190,2013-02-04 14:35:00
9:15 AM,46.4,37.4,71,29.87,10.0,South,12.7,21.9,N/A,,Overcast,190,2013-02-04 15:15:00
9:35 AM,46.4,37.4,71,29.89,10.0,SSW,9.2,-,N/A,,Overcast,210,2013-02-04 15:35:00
10:15 AM,46.4,39.2,76,29.90,10.0,SSW,5.8,-,N/A,,Overcast,200,2013-02-04 16:15:00
10:35 AM,48.2,37.4,66,29.89,10.0,SSW,11.5,-,N/A,,Overcast,210,2013-02-04 16:35:00
10:55 AM,50.0,39.2,66,29.89,10.0,SSW,13.8,18.4,N/A,,Overcast,200,2013-02-04 16:55:00
11:16 AM,50.0,39.2,66,29.89,10.0,SSW,12.7,20.7,N/A,,Overcast,200,2013-02-04 17:16:00
11:35 AM,51.8,41.0,67,29.88,10.0,SSW,13.8,18.4,N/A,,Mostly Cloudy,210,2013-02-04 17:35:00
11:55 AM,51.8,42.8,71,29.87,10.0,SSW,16.1,19.6,N/A,,Partly Cloudy,200,2013-02-04 17:55:00
12:15 PM,53.6,42.8,67,29.87,10.0,SSW,11.5,19.6,N/A,,Clear,210,2013-02-04 18:15:00
12:35 PM,53.6,42.8,67,29.86,10.0,SW,10.4,-,N/A,,Clear,230,2013-02-04 18:35:00
1:15 PM,55.4,42.8,63,29.85,10.0,WSW,11.5,-,N/A,,Partly Cloudy,240,2013-02-04 19:15:00
1:55 PM,55.4,42.8,63,29.84,10.0,West,8.1,-,N/A,,Partly Cloudy,260,2013-02-04 19:55:00
2:15 PM,57.2,42.8,59,29.83,10.0,WNW,10.4,-,N/A,,Mostly Cloudy,290,2013-02-04 20:15:00
2:35 PM,57.2,44.6,63,29.83,10.0,West,8.1,-,N/A,,Scattered Clouds,260,2013-02-04 20:35:00
2:55 PM,57.2,42.8,59,29.83,10.0,WNW,5.8,-,N/A,,Scattered Clouds,290,2013-02-04 20:55:00
3:15 PM,57.2,42.8,59,29.83,10.0,WNW,8.1,-,N/A,,Partly Cloudy,290,2013-02-04 21:15:00
3:55 PM,59.0,41.0,51,29.83,10.0,NW,6.9,-,N/A,,Clear,320,2013-02-04 21:55:00
4:15 PM,59.0,37.4,45,29.83,9.0,NW,9.2,-,N/A,,Clear,310,2013-02-04 22:15:00
4:35 PM,59.0,37.4,45,29.83,10.0,West,5.8,-,N/A,,Clear,280,2013-02-04 22:35:00
4:55 PM,57.2,37.4,48,29.84,10.0,NW,4.6,-,N/A,,Clear,320,2013-02-04 22:55:00
5:15 PM,57.2,37.4,48,29.83,10.0,Calm,Calm,-,N/A,,Clear,0,2013-02-04 23:15:00
5:35 PM,55.4,37.4,51,29.84,10.0,Calm,Calm,-,N/A,,Clear,0,2013-02-04 23:35:00
5:55 PM,53.6,37.4,54,29.85,10.0,Calm,Calm,-,N/A,,Clear,0,2013-02-04 23:55:00
6:15 PM,48.2,35.6,62,29.86,10.0,Calm,Calm,-,N/A,,Clear,0,2013-02-05 00:15:00
6:35 PM,48.2,35.6,62,29.87,10.0,Calm,Calm,-,N/A,,Clear,0,2013-02-05 00:35:00
7:15 PM,51.8,33.8,50,29.88,10.0,North,4.6,-,N/A,,Clear,10,2013-02-05 01:15:00
7:55 PM,48.2,33.8,58,29.89,10.0,North,5.8,-,N/A,,Clear,10,2013-02-05 01:55:00
8:15 PM,48.2,33.8,58,29.90,10.0,North,6.9,-,N/A,,Clear,10,2013-02-05 02:15:00
8:55 PM,46.4,33.8,62,29.91,10.0,North,6.9,-,N/A,,Clear,10,2013-02-05 02:55:00
9:35 PM,46.4,33.8,62,29.93,10.0,North,6.9,-,N/A,,Clear,10,2013-02-05 03:35:00
9:55 PM,44.6,30.2,57,29.93,10.0,NNE,4.6,-,N/A,,Clear,20,2013-02-05 03:55:00
10:35 PM,41.0,30.2,65,29.93,10.0,Calm,Calm,-,N/A,,Clear,0,2013-02-05 04:35:00
10:55 PM,41.0,30.2,65,29.93,10.0,Calm,Calm,-,N/A,,Clear,0,2013-02-05 04:55:00
11:15 PM,39.2,32.0,75,29.92,10.0,Calm,Calm,-,N/A,,Clear,0,2013-02-05 05:15:00
11:55 PM,33.8,28.4,81,29.93,10.0,Calm,Calm,-,N/A,,Clear,0,2013-02-05 05:55:00